User: anonymous   Login
Location: Mactaquac Provincial Park
(45.9573°N, 66.8897°W)
Time: 08:02:23
(UTC-03:00)
Language:

Cosmos 1867 - Orbit

View from above orbital plane
View from above orbital plane
View from above satellite
View from above satellite

Ground track
Ground track

The orbit data is extracted from the following two-line orbital elements,

1 18187U 87060A   14303.83183302 -.00000070  00000-0  11475-4 0  2088
2 18187 065.0130 036.3671 0013872 267.2498 092.6998 14.31030869426579
Epoch (UTC): 30 October 2014 19:57:50
Eccentricity: 0.0013872
inclination: 65.0130°
perigee height: 778 km
apogee height: 798 km
right ascension of ascending node: 36.3671°
argument of perigee: 267.2498°
revolutions per day: 14.31030869
mean anomaly at epoch: 92.6998°
orbit number at epoch: 42657

The dashed part of the orbit path shows where the satellite is in the earth's shadow,  

DLR